◎P/2003 UD16の軌道と予報位置です



 1989年と1991年の発見前の観測が見つかりました.YC2413の軌道(2003年10月

16日〜12月12日)からのこれらの観測の残差は,それぞれ,35'と23'となります.

なお,12月28日の久万の中村彰正氏の観測では,彗星の CCD全光度は,19.5等と

のことです.



    P/2003 UD16 (LONEOS) 

Epoch 2004 Mar. 16.0 TT = JDT 2453080.5  

T 2004 Mar. 3.07534 TT                                  Nakano

q   3.6508470            (2000.0)            P               Q

n   0.06886614     Peri.    4.99866     +0.50347260     -0.80004875

a   5.8947521      Node    55.16131     +0.77830081     +0.25598771

e   0.3806615      Incl.   23.42151     +0.37518421     +0.54257929

P  14.31

From 66 observations 1989-2003, mean residual 0".56.

Residuals in seconds of arc 

1989/                     031101 704  0.4+  0.3+    031217 699  0.1-  0.4-  

891217 261  0.4-  0.0     031101 704  0.0   0.1+    031217 699  0.3-  0.0   

891217 261  0.9+  0.8-    031118 703  0.8+  0.3-    031217 699  1.3+  0.0   

1991/                     031118 703  1.1-  0.2+    031217 699  0.9+  0.6+  

910219 261  0.3-  1.0+    031118 703  0.2+  0.1-    031218 246  0.4+  0.1+  

910219 261  0.6+  0.1-    031118 703  1.5-  0.3-    031218 246  0.6+  0.6-  

2003/                     031119 644  0.6+  0.1+    031218 246  0.1+  0.2+  

031016 699  0.3-  0.6+    031119 644  0.2+  0.2-    031218 246  0.3+  0.4-  

031016 699  0.7+  0.5+    031119 644  0.0   0.1+    031218 246  0.4+  0.4-  

031016 699  1.1-  0.6-    031121 699  0.6+  0.8-    031218 246  0.2+  0.3-  

031016 699 (2.6-  2.5-)   031121 699  0.5-  0.4-    031218 246  0.3+  0.1-  

031021 704  0.1+  0.8+    031121 699  0.3+  0.5-    031218 246  0.0   0.2-  

031021 704  0.9-  0.4+    031121 699  0.0   0.3-    031221 704  0.2-  0.5+  

031021 704  1.4-  0.4-    031130 704  0.4-  0.4+    031221 704  0.5+  0.6+  

031021 644  0.6-  0.3-    031130 696  0.2-  0.2-    031221 704  0.2+  0.4+  

031021 644  0.1+  0.2-    031130 696  0.1-  0.1-    031221 704  0.1+  0.2+  

031021 644  0.1+  0.6-    031130 704  0.9-  0.5+    031223 704  0.3-  0.5+  

031023 699  1.1-  0.5-    031130 704  0.1-  0.5+    031223 704  0.3+  1.7+  

031023 699  0.8-  0.7+    031208 204  0.3+  0.6-    031223 704  0.0   0.4+  

031023 699  0.6-  0.4-    031208 204  0.3+  0.0     031223 215  0.5+  0.6-  

031023 699  0.4+  1.0-    031208 204  1.0-  0.7+    031228 360  1.2+  0.8+  

031101 704  1.0-  0.4-    031211 620  0.1-  0.3-    031228 360  0.6+  0.6+  

031101 704  0.3+  0.3+    031211 620  0.8+  0.3-                            

031101 704  0.3+  0.3+    031212 620  0.3+  0.1-                            

 

Date/        TT  R.A.(2000) Decl.     Delta   r     Daily motion  Mag.  Moon Age

              h    h  m       。  ,                      ,  / PA 。  m1      。

2004 Jan.  1 12  02 19.73  +11 22.9   3.127  3.667     5.5 /   1  18.1    3  .70

           2 12  02 19.74  +11 28.5   3.140  3.666     5.6 /   4  18.1    9  .78

           3 12  02 19.76  +11 34.0   3.153  3.666     5.7 /   7  18.1   21  .85

           4 12  02 19.81  +11 39.7   3.166  3.665     5.8 /  10  18.1   32  .91

           5 12  02 19.87  +11 45.4   3.179  3.665     5.9 /  12  18.2   44  .96

           6 12  02 19.96  +11 51.1   3.192  3.664     6.0 /  14  18.2   56  .99

           7 12  02 20.06  +11 56.9   3.206  3.664     6.1 /  17  18.2   68 1.00

           8 12  02 20.18  +12 02.8   3.219  3.663     6.2 /  19  18.2   80  .99

           9 12  02 20.32  +12 08.7   3.233  3.663     6.4 /  21  18.2   93  .97

          10 12  02 20.48  +12 14.7   3.247  3.662     6.5 /  23  18.2  105  .92

          11 12  02 20.65  +12 20.7   3.260  3.662     6.7 /  25  18.2  118  .86

          12 12  02 20.84  +12 26.7   3.274  3.662     6.8 /  27  18.2  131  .78

          13 12  02 21.06  +12 32.8   3.288  3.661     7.0 /  29  18.2  144  .68

          14 12  02 21.28  +12 39.0   3.302  3.661     7.2 /  30  18.2  157  .58

          15 12  02 21.53  +12 45.2   3.316  3.660     7.3 /  32  18.2  171  .47

          16 12  02 21.80  +12 51.4   3.330  3.660     7.5 /  33  18.2  175  .36

          17 12  02 22.08  +12 57.7   3.345  3.660     7.7 /  35  18.3  161  .25

          18 12  02 22.38  +13 04.1   3.359  3.659     7.9 /  36  18.3  146  .16

          19 12  02 22.69  +13 10.4   3.373  3.659     8.1 /  37  18.3  132  .08

          20 12  02 23.03  +13 16.9   3.388  3.658     8.2 /  38  18.3  117  .03

          21 12  02 23.38  +13 23.3   3.402  3.658     8.4 /  39  18.3  102  .00

          22 12  02 23.74  +13 29.8   3.416  3.658     8.6 /  41  18.3   88  .01

          23 12  02 24.13  +13 36.4   3.431  3.657     8.8 /  42  18.3   74  .04

          24 12  02 24.53  +13 43.0   3.445  3.657     9.0 /  43  18.3   60  .09

          25 12  02 24.95  +13 49.6   3.460  3.657     9.2 /  43  18.3   47  .16

          26 12  02 25.38  +13 56.2   3.474  3.656     9.4 /  44  18.3   34  .24

          27 12  02 25.83  +14 02.9   3.489  3.656     9.5 /  45  18.3   22  .33

          28 12  02 26.29  +14 09.7   3.503  3.656     9.7 /  46  18.4    9  .43

          29 12  02 26.77  +14 16.4   3.518  3.656     9.9 /  47  18.4    3  .52

          30 12  02 27.27  +14 23.2   3.533  3.655    10.1 /  47  18.4   14  .62

          31 12  02 27.78  +14 30.1   3.547  3.655    10.3 /  48  18.4   26  .71

     Feb.  1 12  02 28.31  +14 36.9   3.562  3.655    10.5 /  49  18.4   38  .79

NAKANO

         **** Don't distribute anyone except personal use only ****

                (C) Copyright 2004 OAA/ComputingSection

write mail from CFAD0::NAKANO on 2004-01-05 03:13:32(JST).

 



戻ります。